GW4243 Weather Reports


time (UTC)temp
C
wind
direction
speed
KPH
gust
KPH
rain 1hr
cm
rain 24hr
cm
rain mn
cm
humidity
%
barometer
mb
20260502200040 16 0 0.0 0.0 0.00 0.00 0.00 70 1015.1
20260502195526 16 0 0.0 0.0 0.00 0.00 0.00 69 1015.0
20260502195027 16 0 0.0 0.0 0.00 0.00 0.00 69 1015.0
20260502194537 16 0 0.0 0.0 0.00 0.00 0.00 68 1014.9
20260502194026 16 0 0.0 0.0 0.00 0.00 0.00 67 1014.9
20260502193529 17 0 0.0 0.0 0.00 0.00 0.00 67 1014.9
20260502193053 17 0 0.0 0.0 0.00 0.00 0.00 66 1014.8
20260502192526 17 0 0.0 0.0 0.00 0.00 0.00 66 1014.7
20260502192026 17 0 0.0 0.0 0.00 0.00 0.00 66 1014.7
20260502191540 17 0 0.0 0.0 0.00 0.00 0.00 65 1014.6
20260502191026 18 0 0.0 0.0 0.00 0.00 0.00 65 1014.7
20260502190526 18 0 0.0 0.0 0.00 0.00 0.00 65 1014.6
20260502190044 18 0 0.0 0.0 0.00 0.00 0.00 65 1014.6
20260502185529 18 0 0.0 0.0 0.00 0.00 0.00 64 1014.4
20260502185027 18 0 0.0 0.0 0.00 0.00 0.00 62 1014.3
20260502184550 19 0 0.0 0.0 0.00 0.00 0.00 62 1014.2
20260502184027 19 0 0.0 0.0 0.00 0.00 0.00 62 1014.3
20260502183527 20 0 0.0 0.0 0.00 0.00 0.00 61 1014.1
20260502183039 20 0 0.0 0.0 0.00 0.00 0.00 59 1014.0
20260502182527 20 0 0.0 0.0 0.00 0.00 0.00 59 1014.0
20260502182026 20 0 0.0 0.0 0.00 0.00 0.00 58 1014.1
20260502181543 21 0 0.0 0.0 0.00 0.00 0.00 58 1014.0
20260502181028 21 0 0.0 0.0 0.00 0.00 0.00 58 1013.9
20260502180526 21 0 0.0 0.0 0.00 0.00 0.00 57 1014.0
20260502164026 22 0 0.0 0.0 0.00 0.00 0.00 46 1014.0
20260502163526 22 0 0.0 0.0 0.00 0.00 0.00 46 1014.0
20260502163038 22 0 0.0 0.0 0.00 0.00 0.00 48 1014.0
20260502162529 22 0 0.0 0.0 0.00 0.00 0.00 51 1014.1
20260502162026 22 0 0.0 0.0 0.00 0.00 0.00 51 1014.2
20260502161537 22 0 0.0 0.0 0.00 0.00 0.00 49 1014.3
20260502161026 23 0 0.0 0.0 0.00 0.00 0.00 46 1014.4
20260502160526 23 0 0.0 0.0 0.00 0.00 0.00 43 1014.5
20260502152026 26 0 0.0 0.0 0.00 0.00 0.00 36 1014.9
20260502151548 25 0 0.0 0.0 0.00 0.00 0.00 39 1014.9
20260502151026 26 0 0.0 0.0 0.00 0.00 0.00 36 1015.0
20260502150526 26 0 0.0 0.0 0.00 0.00 0.00 39 1015.1
20260502130527 25 0 0.0 0.0 0.00 0.00 0.00 39 1016.9
20260502123525 24 0 0.0 0.0 0.00 0.00 0.00 41 1017.4
20260502123037 24 0 0.0 0.0 0.00 0.00 0.00 43 1017.4
20260502122526 25 0 0.0 0.0 0.00 0.00 0.00 41 1017.5
20260502122029 25 0 0.0 0.0 0.00 0.00 0.00 43 1017.5
20260502121538 24 0 0.0 0.0 0.00 0.00 0.00 44 1017.5
20260502121027 24 0 0.0 0.0 0.00 0.00 0.00 43 1017.7
20260502120526 24 0 0.0 0.0 0.00 0.00 0.00 44 1017.7
20260502115526 24 0 0.0 0.0 0.00 0.00 0.00 43 1017.9
20260502115026 24 0 0.0 0.0 0.00 0.00 0.00 46 1018.0
20260502114538 23 0 0.0 0.0 0.00 0.00 0.00 47 1018.0
20260502114027 23 0 0.0 0.0 0.00 0.00 0.00 46 1018.1
20260502113528 23 0 0.0 0.0 0.00 0.00 0.00 45 1018.1
20260502113043 23 0 0.0 0.0 0.00 0.00 0.00 44 1018.2
20260502112526 23 0 0.0 0.0 0.00 0.00 0.00 46 1018.3
20260502112031 23 0 0.0 0.0 0.00 0.00 0.00 45 1018.3
20260502111538 23 0 0.0 0.0 0.00 0.00 0.00 48 1018.5
20260502111026 23 0 0.0 0.0 0.00 0.00 0.00 49 1018.6
20260502110526 22 0 0.0 0.0 0.00 0.00 0.00 48 1018.7
20260502110043 22 0 0.0 0.0 0.00 0.00 0.00 47 1018.6
20260502105527 22 0 0.0 0.0 0.00 0.00 0.00 48 1018.6
20260502105027 22 0 0.0 0.0 0.00 0.00 0.00 47 1018.8
20260502104542 22 0 0.0 0.0 0.00 0.00 0.00 48 1018.8
20260502104027 22 0 0.0 0.0 0.00 0.00 0.00 48 1018.9
20260502103528 22 0 0.0 0.0 0.00 0.00 0.00 47 1019.1
20260502103037 21 0 0.0 0.0 0.00 0.00 0.00 47 1019.1
20260502102526 22 0 0.0 0.0 0.00 0.00 0.00 47 1019.2
20260502102026 22 0 0.0 0.0 0.00 0.00 0.00 46 1019.3
20260502101541 21 0 0.0 0.0 0.00 0.00 0.00 47 1019.4
20260502101026 21 0 0.0 0.0 0.00 0.00 0.00 46 1019.5
20260502100527 21 0 0.0 0.0 0.00 0.00 0.00 49 1019.5
20260502091027 18 0 0.0 0.0 0.00 0.00 0.00 49 1020.5
20260502090526 18 0 0.0 0.0 0.00 0.00 0.00 51 1020.5
20260502071536 11 0 0.0 0.0 0.00 0.00 0.00 71 1021.2
20260502071028 11 0 0.0 0.0 0.00 0.00 0.00 71 1021.2
20260502070526 11 0 0.0 0.0 0.00 0.00 0.00 73 1021.2
20260502070100 11 0 0.0 0.0 0.00 0.00 0.00 73 1021.3
20260502065526 10 0 0.0 0.0 0.00 0.00 0.00 73 1021.3
20260502065028 10 0 0.0 0.0 0.00 0.00 0.00 75 1021.4
20260502064545 10 0 0.0 0.0 0.00 0.00 0.00 76 1021.4
20260502064025 9 0 0.0 0.0 0.00 0.00 0.00 77 1021.4
20260502063526 8 0 0.0 0.0 0.00 0.00 0.00 79 1021.4
20260502063038 8 0 0.0 0.0 0.00 0.00 0.00 79 1021.4
20260502062531 8 0 0.0 0.0 0.00 0.00 0.00 80 1021.4
20260502062028 8 0 0.0 0.0 0.00 0.00 0.00 80 1021.4
20260502061538 7 0 0.0 0.0 0.00 0.00 0.00 81 1021.3
20260502061026 7 0 0.0 0.0 0.00 0.00 0.00 81 1021.4
20260502060527 7 0 0.0 0.0 0.00 0.00 0.00 82 1021.4
20260502060043 7 0 0.0 0.0 0.00 0.00 0.00 82 1021.3
20260502055526 7 0 0.0 0.0 0.00 0.00 0.00 82 1021.4
20260502055026 7 0 0.0 0.0 0.00 0.00 0.00 82 1021.4
20260502054550 7 0 0.0 0.0 0.00 0.00 0.00 83 1021.4
20260502054026 7 0 0.0 0.0 0.00 0.00 0.00 83 1021.4
20260502053526 7 0 0.0 0.0 0.00 0.00 0.00 83 1021.4
20260502053043 6 0 0.0 0.0 0.00 0.00 0.00 83 1021.5
20260502052528 6 0 0.0 0.0 0.00 0.00 0.00 83 1021.4
20260502052028 6 0 0.0 0.0 0.00 0.00 0.00 82 1021.4
20260502051546 6 0 0.0 0.0 0.00 0.00 0.00 82 1021.4
20260502051025 6 0 0.0 0.0 0.00 0.00 0.00 82 1021.4
20260502050525 6 0 0.0 0.0 0.00 0.00 0.00 82 1021.4
20260502050038 6 0 0.0 0.0 0.00 0.00 0.00 82 1021.3
20260502045528 6 0 0.0 0.0 0.00 0.00 0.00 82 1021.3
20260502045028 6 0 0.0 0.0 0.00 0.00 0.00 82 1021.1
20260502044538 6 0 0.0 0.0 0.00 0.00 0.00 82 1021.2
20260502044028 6 0 0.0 0.0 0.00 0.00 0.00 83 1021.2
20260502043529 6 0 0.0 0.0 0.00 0.00 0.00 83 1021.2
20260502043050 6 0 0.0 0.0 0.00 0.00 0.00 83 1021.3
20260502042526 6 0 0.0 0.0 0.00 0.00 0.00 83 1021.2
20260502042026 6 0 0.0 0.0 0.00 0.00 0.00 82 1021.2
20260502041600 6 0 0.0 0.0 0.00 0.00 0.00 82 1021.2
20260502041026 6 0 0.0 0.0 0.00 0.00 0.00 82 1021.2
20260502040526 6 0 0.0 0.0 0.00 0.00 0.00 82 1021.3
20260502040049 6 0 0.0 0.0 0.00 0.00 0.00 82 1021.1
20260502035526 6 0 0.0 0.0 0.00 0.00 0.00 82 1021.2
20260502035028 6 0 0.0 0.0 0.00 0.00 0.00 82 1021.1
20260502034544 6 0 0.0 0.0 0.00 0.00 0.00 82 1021.3
20260502034029 6 0 0.0 0.0 0.00 0.00 0.00 82 1021.2
20260502033529 6 0 0.0 0.0 0.00 0.00 0.00 82 1021.3
20260502033037 6 0 0.0 0.0 0.00 0.00 0.00 82 1021.3
20260502032525 6 0 0.0 0.0 0.00 0.00 0.00 82 1021.2
20260502032025 6 0 0.0 0.0 0.00 0.00 0.00 82 1021.2
20260502031538 6 0 0.0 0.0 0.00 0.00 0.00 82 1021.1
20260502031026 6 0 0.0 0.0 0.00 0.00 0.00 82 1021.0
20260502030526 6 0 0.0 0.0 0.00 0.00 0.00 82 1021.0
20260502030050 6 0 0.0 0.0 0.00 0.00 0.00 82 1021.0
20260502025528 6 0 0.0 0.0 0.00 0.00 0.00 82 1021.0
20260502025026 6 0 0.0 0.0 0.00 0.00 0.00 82 1021.0
20260502024550 6 0 0.0 0.0 0.00 0.00 0.00 82 1021.1
20260502024026 6 0 0.0 0.0 0.00 0.00 0.00 81 1021.1
20260502023527 6 0 0.0 0.0 0.00 0.00 0.00 81 1021.0
20260502023055 6 0 0.0 0.0 0.00 0.00 0.00 81 1021.0
20260502022525 6 0 0.0 0.0 0.00 0.00 0.00 81 1021.1
20260502022025 6 0 0.0 0.0 0.00 0.00 0.00 81 1021.1
20260502021538 6 0 0.0 0.0 0.00 0.00 0.00 81 1021.0
20260502021028 6 0 0.0 0.0 0.00 0.00 0.00 82 1021.0
20260502020526 7 0 0.0 0.0 0.00 0.00 0.00 82 1021.0
20260502020038 7 0 0.0 0.0 0.00 0.00 0.00 82 1021.0
20260502015526 7 0 0.0 0.0 0.00 0.00 0.00 82 1021.0
20260502015027 7 0 0.0 0.0 0.00 0.00 0.00 81 1021.1
20260502014541 7 0 0.0 0.0 0.00 0.00 0.00 81 1021.1
20260502014031 7 0 0.0 0.0 0.00 0.00 0.00 81 1021.1
20260502013526 7 0 0.0 0.0 0.00 0.00 0.00 81 1021.1
20260502013044 7 0 0.0 0.0 0.00 0.00 0.00 81 1021.1
20260502012526 7 0 0.0 0.0 0.00 0.00 0.00 81 1021.1
20260502012025 7 0 0.0 0.0 0.00 0.00 0.00 80 1021.1
20260502011552 7 0 0.0 0.0 0.00 0.00 0.00 80 1021.1
20260502011025 7 0 0.0 0.0 0.00 0.00 0.00 80 1021.0
20260502010526 7 0 0.0 0.0 0.00 0.00 0.00 80 1021.1
20260502010041 7 0 0.0 0.0 0.00 0.00 0.00 79 1021.0
20260502005526 7 0 0.0 0.0 0.00 0.00 0.00 78 1021.1
20260502005030 7 0 0.0 0.0 0.00 0.00 0.00 78 1021.1
20260502004540 7 0 0.0 0.0 0.00 0.00 0.00 78 1021.1
20260502004028 8 0 0.0 0.0 0.00 0.00 0.00 78 1021.1
20260502003527 8 0 0.0 0.0 0.00 0.00 0.00 78 1021.1
20260502003039 8 0 0.0 0.0 0.00 0.00 0.00 78 1021.1
20260502002527 8 0 0.0 0.0 0.00 0.00 0.00 77 1021.1
20260502002026 8 0 0.0 0.0 0.00 0.00 0.00 76 1021.1
20260502001542 8 0 0.0 0.0 0.00 0.00 0.00 76 1021.1
20260502001032 8 0 0.0 0.0 0.00 0.00 0.00 75 1021.2
20260502000525 8 0 0.0 0.0 0.00 0.00 0.00 75 1021.3
20260502000053 8 0 0.0 0.0 0.00 0.00 0.00 74 1021.4
20260501235525 8 0 0.0 0.0 0.00 0.00 0.00 73 1021.5
20260501235026 8 0 0.0 0.0 0.00 0.00 0.00 72 1021.3
20260501234539 8 0 0.0 0.0 0.00 0.00 0.00 72 1021.4
20260501234026 8 0 0.0 0.0 0.00 0.00 0.00 73 1021.3
20260501233525 8 0 0.0 0.0 0.00 0.00 0.00 72 1021.3
20260501233053 8 0 0.0 0.0 0.00 0.00 0.00 71 1021.4
20260501232525 9 0 0.0 0.0 0.00 0.00 0.00 70 1021.3
20260501232025 9 0 0.0 0.0 0.00 0.00 0.00 70 1021.3
20260501231601 9 0 0.0 0.0 0.00 0.00 0.00 70 1021.3
20260501231025 9 0 0.0 0.0 0.00 0.00 0.00 70 1021.2
20260501230525 9 0 0.0 0.0 0.00 0.00 0.00 70 1021.2
20260501230114 10 0 0.0 0.0 0.00 0.00 0.00 69 1021.2
20260501225526 10 0 0.0 0.0 0.00 0.00 0.00 69 1021.2
20260501225026 10 0 0.0 0.0 0.00 0.00 0.00 69 1021.2
20260501224556 10 0 0.0 0.0 0.00 0.00 0.00 68 1021.1
20260501224026 10 0 0.0 0.0 0.00 0.00 0.00 68 1021.1
20260501223526 10 0 0.0 0.0 0.00 0.00 0.00 68 1021.2
20260501223046 10 0 0.0 0.0 0.00 0.00 0.00 68 1021.2
20260501222528 10 0 0.0 0.0 0.00 0.00 0.00 67 1021.2
20260501222026 10 0 0.0 0.0 0.00 0.00 0.00 67 1021.2
20260501221539 10 0 0.0 0.0 0.00 0.00 0.00 67 1021.1
20260501221029 10 0 0.0 0.0 0.00 0.00 0.00 67 1021.2
20260501220526 10 0 0.0 0.0 0.00 0.00 0.00 67 1021.1
20260501220041 11 0 0.0 0.0 0.00 0.00 0.00 66 1021.1
20260501215528 11 0 0.0 0.0 0.00 0.00 0.00 65 1021.0
20260501215028 11 0 0.0 0.0 0.00 0.00 0.00 65 1021.0
20260501214537 11 0 0.0 0.0 0.00 0.00 0.00 66 1021.0
20260501214026 11 0 0.0 0.0 0.00 0.00 0.00 67 1021.0
20260501213526 11 0 0.0 0.0 0.00 0.00 0.00 66 1021.0
20260501213036 11 0 0.0 0.0 0.00 0.00 0.00 65 1021.0
20260501212526 11 0 0.0 0.0 0.00 0.00 0.00 64 1021.0
20260501212027 12 0 0.0 0.0 0.00 0.00 0.00 64 1021.0
20260501211538 12 0 0.0 0.0 0.00 0.00 0.00 63 1021.0
20260501211026 12 0 0.0 0.0 0.00 0.00 0.00 62 1021.0
20260501210529 12 0 0.0 0.0 0.00 0.00 0.00 61 1020.9
20260501210039 12 0 0.0 0.0 0.00 0.00 0.00 61 1020.8
20260501205527 12 0 0.0 0.0 0.00 0.00 0.00 61 1020.8
20260501205028 12 0 0.0 0.0 0.00 0.00 0.00 59 1020.8
20260501204542 12 0 0.0 0.0 0.00 0.00 0.00 59 1020.7
20260501204026 13 0 0.0 0.0 0.00 0.00 0.00 59 1020.7
20260501203526 13 0 0.0 0.0 0.00 0.00 0.00 58 1020.6
20260501203044 13 0 0.0 0.0 0.00 0.00 0.00 58 1020.7
20260501202526 13 0 0.0 0.0 0.00 0.00 0.00 58 1020.7
20260501202029 13 0 0.0 0.0 0.00 0.00 0.00 57 1020.7
20260501201542 13 0 0.0 0.0 0.00 0.00 0.00 57 1020.8
20260501201027 13 0 0.0 0.0 0.00 0.00 0.00 56 1020.7
20260501200527 14 0 0.0 0.0 0.00 0.00 0.00 58 1020.7